sat.trackr.live / text

‹ back to catalog

GEESAT-5 07

NORAD 65556 · 2025-201G

PAYLOAD ACTIVE UNKNOWN

§ Identity

Operator
Country
PRC
Launch date
2025-09-08
Launch site
YSLA
Launch vehicle
Mass (kg)
RCS (m²)

External: N2YO · Heavens-Above · Gunter

§ Orbital elements

Epoch: 2026-09-20T10:10:56.453664Z

Period
97.01 min
Inclination
49.9896°
Eccentricity
0.0013201
Mean motion
14.84402695 rev/d
Perigee alt
606.2 km
Apogee alt
624.7 km
Semi-major
6,993.6 km
B*
1.2608e-4
RAAN
317.2584°
Arg perigee
317.6362°
Mean anomaly
42.3557°
Rev number
5,594

§ Raw data

GEESAT-5 071 65556U 25201G   26263.42426451  .00000842  00000+0  12608-3 0  99972 65556  49.9896 317.2584 0013201 317.6362  42.3557 14.84402695 55941

JSON: /api/v1/satellites/65556 · /tle

For live sub-satellite position, see the globe view (requires WebGL).

§ Visibility from observer

Set your observer location to see the next 7 days of passes ≥ 10°. The values pass through the URL so the page stays shareable.

No JS? Fill the form by hand. The geolocation button needs JavaScript.